Regional Weather Roundup
Issued by NWS Little Rock, AR

Home | Current Version | Previous Version | Text Only | Print | Product List | Glossary On
Versions: 1 2 3 4 5 6 7 8 9 10 11 12 13 14 15 16 17 18 19 20 21 22 23 24 25 26 27 28 29 30 31 32 33 34 35 36 37 38 39 40 41 42 43 44 45 46 47 48 49 50
000
ASUS44 KLZK 102005
RWRLZK

WEATHER ROUNDUP FOR ARKANSAS
NATIONAL WEATHER SERVICE LITTLE ROCK AR
200 PM CST TUE DEC 10 2019

NOTE: "FAIR" INDICATES FEW OR NO CLOUDS BELOW 12,000 FEET WITH NO
SIGNIFICANT WEATHER AND/OR OBSTRUCTIONS TO VISIBILITY.

ARZ001-003-010-029-102100-
NORTHWEST ARKANSAS

CITY           SKY/WX    TMP DP  RH WIND       PRES   REMARKS
FAYETTEVILLE   SUNNY     40  18  41 NW6       30.30F
FORT SMITH     SUNNY     42  21  43 CALM      30.35R
HARRISON       SUNNY     40  11  30 VRB5      30.28F
BENTONVILLE    SUNNY     39  16  39 VRB3      30.32F
ROGERS         SUNNY     39  12  33 NW6       30.31S
SILOAM SPGS    SUNNY     40  18  41 N5        30.32F
HIGHFILL       SUNNY     40  16  37 CALM      30.31F
SPRINGDALE     SUNNY     41  12  30 CALM      30.31F
$$

ARZ004-005-016-102100-
NORTH CENTRAL ARKANSAS

CITY           SKY/WX    TMP DP  RH WIND       PRES   REMARKS
BATESVILLE     SUNNY     35  17  47 CALM      30.34S
FLIPPIN        SUNNY     37  16  42 CALM      30.32F
MTN HOME       SUNNY     36  16  44 W3        30.30F
$$

ARZ040-041-102100-
WEST CENTRAL ARKANSAS

CITY           SKY/WX    TMP DP  RH WIND       PRES   REMARKS
MENA           SUNNY     43  21  42 E5        30.33R
MOUNT IDA      SUNNY     40  22  48 VRB3      30.29F
$$

ARZ009-017-025-026-028-102100-
NORTHEAST ARKANSAS

CITY           SKY/WX    TMP DP  RH WIND       PRES   REMARKS
JONESBORO      FAIR      36  17  46 NE5       30.32F
NEWPORT        FAIR      35  19  52 CALM      30.36S
WALNUT RIDGE   FAIR      35  16  45 N3        30.32F
BLYTHEVILLE    FAIR      35  21  56 N7        30.33F WCI  29
$$

ARZ022-023-033-042-044-102100-
CENTRAL ARKANSAS

CITY           SKY/WX    TMP DP  RH WIND       PRES   REMARKS
LITTLE ROCK    CLOUDY    37  20  50 N10       30.34R
N LITTLE ROCK    N/A     35  20  54 E8        30.35F WCI  29
BENTON         CLEAR     37  21  52 N8        30.33F
CONWAY         CLEAR     37  21  52 CALM      30.34
SEARCY         FAIR      37  20  50 N3        30.37
HOT SPRINGS    SUNNY     39  19  44 E5        30.34S
RUSSELLVILLE   SUNNY     40  17  39 S3        30.32F
CLINTON        FAIR      37  16  41 CALM      30.33S
$$

ARZ036-102100-
EAST ARKANSAS

CITY           SKY/WX    TMP DP  RH WIND       PRES   REMARKS
WEST MEMPHIS   CLOUDY    36  27  69 NE8       30.29F
$$

ARZ050-053-066-070-073-102100-
SOUTHWEST ARKANSAS

CITY           SKY/WX    TMP DP  RH WIND       PRES   REMARKS
ARKADELPHIA    FAIR      39  27  62 NE5       30.36F
CAMDEN         DRIZZLE   36  32  87 E5        30.33F
TEXARKANA      CLOUDY    36  35  96 NE9       30.34R
EL DORADO      LGT RAIN  36  35  96 NE6       30.32F
DE QUEEN       SUNNY     42  28  57 NE5       30.35R
$$

ARZ056-057-069-102100-
SOUTHEAST ARKANSAS

CITY           SKY/WX    TMP DP  RH WIND       PRES   REMARKS
PINE BLUFF     CLOUDY    38  24  57 N7        30.35R
STUTTGART      CLOUDY    38  25  59 N9        30.37R
MONTICELLO     LGT SNOW  34  32  92 CALM      30.34F FOG

$$





USA.gov is the U.S. government's official web portal to all federal, state and local government web resources and services.